Location: Central Falls
(41.8900°N, 71.3929°W)
Time: 11:38:42
(UTC+00:00)

A-11 Canister half - Pass Details

Date: 09 December 2023
Orbit: 1526 x 1682 km, 47.3° (Epoch: 20 February)

Event Time Altitude Azimuth Distance (km) Brightness Sun altitude
Rises 20:29:38 0° 194° (SSW) 4,874 12.6 6.0°
Reaches altitude 10° 20:33:20 10° 183° (S) 3,906 11.8 5.5°
Maximum altitude 20:41:24 29° 129° (SE) 2,745 10.3 4.3°
Drops below altitude 10° 20:49:31 10° 75° (ENE) 3,944 10.6 3.1°
Sets 20:53:14 0° 65° (ENE) 4,929 11.0 2.5°
